Weather History for Fort Campbell, KY

Change the Weather History Date:

Wednesday, January 30, 2013

  Actual Average Record
Temperature  
Mean Temperature 52 °F -  
Max Temperature 71 °F 45 °F 71 °F (2013)
Min Temperature 33 °F 28 °F 10 °F (2004)
Degree Days  
Heating Degree Days 13    
Growing Degree Days 2 (Base 50)    
Moisture  
Dew Point 49 °F    
Average Humidity 89    
Maximum Humidity 100    
Minimum Humidity 62    
Precipitation  
Precipitation 1.60 in - - ()
Sea Level Pressure  
Sea Level Pressure 29.56 in    
Wind  
Wind Speed 17 mph (SW)    
Max Wind Speed 37 mph    
Max Gust Speed 48 mph    
Visibility 7 miles    
Events Fog , Rain , Snow , Thunderstorm    
Averages and records for this station are not official NWS values.
T = Trace of Precipitation, MM = Missing Value Source: NWS Daily Summary

Daily Weather History Graph

Daily Weather History Graph

Search for Another Location

Airport:

Trip Planner

Search our weather history database for the weather conditions in past years. The results will help you decide how hot, cold, wet, or windy it might be!

Date:

Astronomy

Jan. 30, 2013 Rise Set
Actual Time 6:53 AM CST 5:13 PM CST
Civil Twilight 6:25 AM CST 5:41 PM CST
Nautical Twilight 5:54 AM CST 6:12 PM CST
Astronomical Twilight 5:24 AM CST 6:42 PM CST
Moon 9:04 PM CST (1/30) 8:28 AM CST (1/30)
Length of Visible Light 11h 15m
Length of Day
10h 20m
Waning Gibbous, 87% of the Moon is Illuminated
Jan 30
Waning Gibbous
Feb 3
Last Quarter
Feb 10
New
Feb 17
First Quarter
Feb 25
Full

Hourly Weather History & Observations

Time (CST) Temp. Windchill Dew Point Humidity Pressure Visibility Wind Dir Wind Speed Gust Speed Precip Events Conditions
12:55 AM 71.2 °F - 62.1 °F 73% 29.47 in 10.0 mi South 19.6 mph 32.2 mph N/A   Scattered Clouds
12:57 AM 71.6 °F - 62.6 °F 73% 29.47 in 10.0 mi South 25.3 mph 36.8 mph N/A   Light Drizzle
12:58 AM 71.6 °F - 62.6 °F 73% 29.47 in 10.0 mi South 25.3 mph 36.8 mph N/A Rain , Thunderstorm Light Thunderstorms and Rain
1:07 AM 71.6 °F - 62.6 °F 73% 29.46 in 10.0 mi South 18.4 mph 38.0 mph N/A Thunderstorm Thunderstorm
1:21 AM 71.6 °F - 62.6 °F 73% 29.44 in 10.0 mi South 20.7 mph 31.1 mph N/A Rain , Thunderstorm Light Thunderstorms and Rain
1:24 AM 71.6 °F - 62.6 °F 73% 29.44 in 10.0 mi South 20.7 mph 31.1 mph N/A Rain Light Rain
1:41 AM 69.8 °F - 62.6 °F 78% 29.53 in 5.0 mi WSW 36.8 mph 48.3 mph N/A Rain , Thunderstorm Light Rain
1:44 AM 66.2 °F - 60.8 °F 83% 29.51 in 1.5 mi West 32.2 mph 48.3 mph N/A Rain , Thunderstorm Heavy Rain
1:45 AM 66.2 °F - 60.8 °F 83% 29.50 in 1.0 mi West 28.8 mph 48.3 mph N/A Rain , Thunderstorm Heavy Rain
1:48 AM 62.6 °F - 60.8 °F 94% 29.53 in 0.5 mi West 26.5 mph 48.3 mph N/A Fog , Rain , Thunderstorm Heavy Rain
1:52 AM 60.8 °F - 60.8 °F 100% 29.53 in 0.5 mi WSW 24.2 mph 38.0 mph N/A Fog , Rain , Thunderstorm Heavy Rain
1:55 AM 59.9 °F - 59.9 °F 100% 29.51 in 0.5 mi WSW 17.3 mph - 0.66 in Fog , Rain , Thunderstorm Heavy Rain
1:58 AM 59.0 °F - 59.0 °F 100% 29.51 in 0.5 mi WSW 13.8 mph - N/A Fog , Rain , Thunderstorm Heavy Rain
1:59 AM 59.0 °F - 59.0 °F 100% 29.51 in 0.8 mi WSW 11.5 mph - N/A Rain , Thunderstorm Heavy Rain
2:00 AM 59.0 °F - 59.0 °F 100% 29.50 in 0.8 mi West 11.5 mph - N/A Rain , Thunderstorm Heavy Rain
2:03 AM 59.0 °F - 59.0 °F 100% 29.50 in 1.2 mi WSW 11.5 mph - N/A Rain , Thunderstorm Heavy Rain
2:05 AM 59.0 °F - 59.0 °F 100% 29.51 in 1.5 mi WSW 11.5 mph - N/A Rain , Thunderstorm Heavy Rain
2:11 AM 59.0 °F - 59.0 °F 100% 29.51 in 1.2 mi WSW 13.8 mph - N/A Rain , Thunderstorm Heavy Rain
2:16 AM 59.0 °F - 59.0 °F 100% 29.49 in 1.0 mi West 12.7 mph - N/A Rain Heavy Rain
2:18 AM 57.2 °F - 57.2 °F 100% 29.51 in 1.2 mi West 15.0 mph - N/A Rain Heavy Rain
2:22 AM 57.2 °F - 57.2 °F 100% 29.51 in 1.5 mi West 11.5 mph - N/A Rain Heavy Rain
2:40 AM 55.4 °F - 55.4 °F 100% 29.53 in 2.0 mi WNW 21.9 mph 32.2 mph N/A Rain Heavy Rain
2:44 AM 55.4 °F - 55.4 °F 100% 29.54 in 3.0 mi WNW 23.0 mph 32.2 mph N/A Rain Heavy Rain
2:46 AM 55.4 °F - 55.4 °F 100% 29.54 in 3.0 mi WNW 19.6 mph 29.9 mph N/A Rain Heavy Rain
2:55 AM 54.9 °F - 54.9 °F 100% 29.54 in 4.0 mi NW 15.0 mph - 0.56 in Rain Heavy Rain
3:01 AM 53.6 °F - 53.6 °F 100% 29.54 in 4.0 mi WNW 12.7 mph - N/A Rain Rain
3:08 AM 53.6 °F - 53.6 °F 100% 29.54 in 6.0 mi NW 11.5 mph 19.6 mph N/A Rain Rain
3:50 AM 53.6 °F - 53.6 °F 100% 29.55 in 8.0 mi WNW 5.8 mph - N/A Rain Light Rain
3:55 AM 53.2 °F - 53.2 °F 100% 29.55 in 7.0 mi WNW 3.5 mph - 0.07 in Rain Light Rain
4:02 AM 53.6 °F - 53.6 °F 100% 29.55 in 7.0 mi West 3.5 mph - N/A Rain Light Rain
4:20 AM 53.6 °F - 53.6 °F 100% 29.56 in 8.0 mi SSW 4.6 mph - N/A   Drizzle
4:21 AM 53.6 °F - 53.6 °F 100% 29.57 in 8.0 mi SW 4.6 mph - N/A Rain Light Rain
4:26 AM 53.6 °F - 53.6 °F 100% 29.55 in 5.0 mi SSW 3.5 mph - N/A Rain Rain
4:31 AM 53.6 °F - 53.6 °F 100% 29.55 in 3.0 mi Calm Calm - N/A Rain Rain
4:34 AM 53.6 °F - 53.6 °F 100% 29.55 in 4.0 mi SSE 3.5 mph - N/A Rain Rain
4:36 AM 53.6 °F - 53.6 °F 100% 29.55 in 4.0 mi SE 5.8 mph - N/A Rain Light Rain
4:39 AM 53.6 °F - 53.6 °F 100% 29.55 in 5.0 mi SSE 5.8 mph - N/A Rain Light Rain
4:44 AM 53.6 °F - 53.6 °F 100% 29.55 in 9.0 mi South 5.8 mph - N/A Rain Light Rain
4:53 AM 53.6 °F - 53.6 °F 100% 29.55 in 10.0 mi SSE 5.8 mph - N/A   Light Drizzle
4:55 AM 52.9 °F - 52.9 °F 100% 29.55 in 10.0 mi SSE 6.9 mph - 0.08 in Rain Light Rain
4:58 AM 53.6 °F - 53.6 °F 100% 29.55 in 10.0 mi SSE 4.6 mph - N/A Rain Light Rain
5:21 AM 53.6 °F - 53.6 °F 100% 29.59 in 10.0 mi South 6.9 mph - N/A Rain Light Rain
5:24 AM 53.6 °F - 53.6 °F 100% 29.60 in 10.0 mi South 8.1 mph - N/A Rain Light Rain
5:33 AM 53.6 °F - 53.6 °F 100% 29.59 in 8.0 mi South 6.9 mph - N/A Rain Light Rain
5:35 AM 53.6 °F - 53.6 °F 100% 29.59 in 8.0 mi South 5.8 mph - N/A Rain Light Rain
5:40 AM 53.6 °F - 53.6 °F 100% 29.58 in 8.0 mi South 5.8 mph - N/A Rain Light Rain
5:55 AM 53.2 °F - 53.2 °F 100% 29.55 in 7.0 mi SE 8.1 mph - 0.06 in Rain Light Rain
6:18 AM 53.6 °F - 53.6 °F 100% 29.56 in 8.0 mi SSE 8.1 mph - N/A Rain Light Rain
6:25 AM 53.6 °F - 53.6 °F 100% 29.52 in 8.0 mi ESE 10.4 mph - N/A Rain Light Rain
6:45 AM 53.6 °F - 53.6 °F 100% 29.50 in 10.0 mi SE 11.5 mph - N/A   Light Drizzle
6:46 AM 53.6 °F - 53.6 °F 100% 29.50 in 10.0 mi SE 10.4 mph - N/A   Overcast
6:55 AM 53.4 °F - 53.4 °F 100% 29.52 in 10.0 mi SSE 10.4 mph - 0.06 in Rain Light Rain
7:02 AM 53.6 °F - 53.6 °F 100% 29.49 in 10.0 mi SE 10.4 mph - N/A   Light Drizzle
7:16 AM 53.6 °F - 53.6 °F 100% 29.50 in 10.0 mi SSE 9.2 mph - N/A   Light Drizzle
7:17 AM 53.6 °F - 53.6 °F 100% 29.50 in 10.0 mi SE 9.2 mph - N/A   Mostly Cloudy
7:18 AM 53.6 °F - 53.6 °F 100% 29.50 in 10.0 mi SE 10.4 mph - N/A   Light Drizzle
7:28 AM 53.6 °F - 53.6 °F 100% 29.52 in 10.0 mi SSE 11.5 mph - N/A   Mostly Cloudy
7:55 AM 53.8 °F - 53.8 °F 100% 29.51 in 10.0 mi SSE 9.2 mph - 0.00 in   Mostly Cloudy
8:01 AM 53.6 °F - 53.6 °F 100% 29.51 in 10.0 mi South 11.5 mph - N/A   Mostly Cloudy
8:39 AM 53.6 °F - 53.6 °F 100% 29.52 in 10.0 mi South 9.2 mph - N/A   Mostly Cloudy
8:55 AM 54.1 °F - 54.1 °F 100% 29.52 in 10.0 mi South 11.5 mph - N/A   Scattered Clouds
9:55 AM 54.9 °F - 54.9 °F 100% 29.52 in 10.0 mi SSW 15.0 mph - N/A   Clear
10:55 AM 55.6 °F - 52.7 °F 90% 29.51 in 10.0 mi SW 15.0 mph - N/A   Scattered Clouds
11:55 AM 56.5 °F - 52.3 °F 86% 29.46 in 10.0 mi SW 15.0 mph - N/A   Scattered Clouds
12:55 PM 56.1 °F - 50.9 °F 83% 29.47 in 10.0 mi SW 16.1 mph - N/A   Mostly Cloudy
1:53 PM 55.4 °F - 46.4 °F 72% 29.45 in 10.0 mi SSW 18.4 mph - N/A   Light Drizzle
1:55 PM 55.8 °F - 47.3 °F 73% 29.45 in 10.0 mi SW 19.6 mph 26.5 mph 0.00 in   Light Drizzle
2:02 PM 55.4 °F - 46.4 °F 72% 29.46 in 10.0 mi SW 21.9 mph 26.5 mph N/A   Scattered Clouds
2:11 PM 55.4 °F - 48.2 °F 77% 29.45 in 10.0 mi SW 12.7 mph - N/A   Light Drizzle
2:24 PM 53.6 °F - 48.2 °F 82% 29.46 in 10.0 mi SW 15.0 mph - N/A   Mostly Cloudy
2:50 PM 55.4 °F - 46.4 °F 72% 29.45 in 10.0 mi WSW 16.1 mph - N/A   Light Drizzle
2:55 PM 54.3 °F - 46.6 °F 75% 29.47 in 10.0 mi WSW 19.6 mph 25.3 mph 0.00 in   Light Drizzle
3:01 PM 53.6 °F - 46.4 °F 77% 29.47 in 3.0 mi WSW 27.6 mph 38.0 mph N/A Rain Rain
3:02 PM 51.8 °F - 46.4 °F 82% 29.48 in 2.5 mi WSW 28.8 mph 38.0 mph N/A Rain Rain
3:09 PM 50.0 °F - 48.2 °F 94% 29.49 in 2.0 mi West 21.9 mph 38.0 mph N/A Rain Rain
3:21 PM 48.2 °F - 46.4 °F 93% 29.50 in 2.0 mi West 21.9 mph 31.1 mph N/A Rain Rain
3:26 PM 48.2 °F - 46.4 °F 93% 29.51 in 3.0 mi West 19.6 mph 28.8 mph N/A Rain Rain
3:54 PM 46.4 °F 38.7 °F 42.8 °F 87% 29.53 in 10.0 mi West 20.7 mph 27.6 mph N/A   Overcast
3:55 PM 46.4 °F 38.5 °F 43.2 °F 88% 29.53 in 10.0 mi West 21.9 mph 27.6 mph 0.09 in   Overcast
3:58 PM 46.4 °F 38.5 °F 42.8 °F 87% 29.54 in 10.0 mi West 21.9 mph 31.1 mph N/A   Light Drizzle
4:07 PM 46.4 °F 38.5 °F 42.8 °F 87% 29.55 in 8.0 mi West 21.9 mph 31.1 mph N/A   Light Drizzle
4:25 PM 44.6 °F 36.9 °F 41.0 °F 87% 29.55 in 10.0 mi West 18.4 mph 28.8 mph N/A   Overcast
4:34 PM 44.6 °F 36.4 °F 39.2 °F 81% 29.56 in 10.0 mi West 20.7 mph 31.1 mph N/A   Overcast
4:55 PM 44.2 °F 36.4 °F 37.0 °F 76% 29.56 in 10.0 mi West 18.4 mph 28.8 mph 0.00 in   Mostly Cloudy
5:29 PM 44.6 °F 35.3 °F 35.6 °F 71% 29.60 in 10.0 mi West 26.5 mph 34.5 mph N/A   Overcast
5:40 PM 42.8 °F 33.3 °F 33.8 °F 70% 29.61 in 10.0 mi West 24.2 mph 35.7 mph N/A   Overcast
5:50 PM 42.8 °F 34.3 °F 33.8 °F 70% 29.62 in 10.0 mi West 19.6 mph 31.1 mph N/A   Overcast
5:55 PM 41.9 °F 32.1 °F 33.8 °F 73% 29.62 in 10.0 mi West 24.2 mph 34.5 mph 0.00 in   Light Drizzle
6:06 PM 41.0 °F 31.4 °F 33.8 °F 76% 29.64 in 10.0 mi West 21.9 mph - N/A   Overcast
6:21 PM 39.2 °F 28.5 °F 33.8 °F 81% 29.65 in 10.0 mi WNW 24.2 mph 35.7 mph N/A   Light Drizzle
6:30 PM 39.2 °F 29.0 °F 33.8 °F 81% 29.65 in 10.0 mi West 21.9 mph 28.8 mph N/A   Overcast
6:55 PM 38.1 °F 26.8 °F 28.2 °F 68% 29.70 in 10.0 mi WNW 25.3 mph 36.8 mph 0.00 in   Overcast
7:02 PM 37.4 °F 25.2 °F 26.6 °F 65% 29.71 in 10.0 mi WNW 28.8 mph 39.1 mph N/A   Overcast
7:55 PM 36.3 °F 25.8 °F 24.3 °F 62% 29.76 in 10.0 mi West 19.6 mph 32.2 mph 0.02 in   Overcast
8:55 PM 35.2 °F 25.0 °F 25.2 °F 67% 29.81 in 10.0 mi West 17.3 mph 25.3 mph N/A   Overcast
9:55 PM 34.5 °F 23.4 °F 23.2 °F 63% 29.86 in 10.0 mi WNW 19.6 mph 27.6 mph N/A   Overcast
10:55 PM 34.2 °F 23.6 °F 23.7 °F 66% 29.89 in 10.0 mi West 17.3 mph - N/A   Overcast
11:07 PM 33.8 °F 24.3 °F 24.8 °F 70% 29.90 in 10.0 mi West 13.8 mph - N/A   Overcast
11:09 PM 33.8 °F 23.9 °F 24.8 °F 70% 29.90 in 10.0 mi West 15.0 mph - N/A   Overcast
11:15 PM 33.8 °F 23.2 °F 24.8 °F 70% 29.91 in 6.0 mi West 17.3 mph 23.0 mph N/A Snow Light Snow
11:21 PM 33.8 °F 22.2 °F 24.8 °F 70% 29.91 in 10.0 mi West 20.7 mph 25.3 mph N/A   Overcast
11:55 PM 33.8 °F 22.8 °F 23.0 °F 65% 29.98 in 10.0 mi West 18.4 mph 28.8 mph N/A   Overcast